Regional Weather Roundup
Issued by NWS

Home | Current Version | Previous Version | Text Only | Print | Product List | Glossary On
Versions: 1 2 3 4 5 6 7 8 9 10 11 12 13 14 15 16 17 18 19 20 21 22 23 24 25 26 27 28 29 30 31 32 33 34 35 36 37 38 39 40 41 42 43 44 45 46 47 48 49 50
000
ASUS43 KIND 310109
RWRIN

WEATHER ROUNDUP FOR INDIANA
NATIONAL WEATHER SERVICE INDIANAPOLIS IN
900 PM EDT SAT JUL 30 2016

NOTE: "FAIR" INDICATES FEW OR NO CLOUDS BELOW 12,000 FEET WITH NO
SIGNIFICANT WEATHER AND/OR OBSTRUCTIONS TO VISIBILITY.

* - STATION DOES NOT REPORT WEATHER SUCH AS PRECIPITATION OR FOG.

+ - STATION NOT QUALITY CONTROLLED BY THE NATIONAL WEATHER SERVICE.
    USE DATA WITH CAUTION...ESPECIALLY DEWPOINT AND RELATIVE
    HUMIDITY OBSERVATIONS.

INZ001>003-010>013-019-020-310200-
NORTHWEST INDIANA

CITY           SKY/WX    TMP DP  RH WIND       PRES   REMARKS
GARY /AIRPORT/ MOCLDY    73  70  88 N5        29.99R
KNOX *+        CLEAR     70  61  73 N8        29.96R
LA PORTE +     CLEAR     72  71  97 N9        29.98R
MICHIGAN CITY+ CLEAR     70  66  88 MISG      29.98R
MONTICELLO +   PTCLDY    71  63  75 N3        29.94S
RENSSELAER +   CLEAR     72  68  88 N6        29.96R
VALPARAISO     CLEAR     70  66  87 N6        29.98R

$$

LMZ046-743>745-310200-
SOUTHERN LAKE MICHIGAN

STATION/POSITION TIME  TEMP    WIND        PRES    WAVE
                       AIR SEA DIR/SP/G            HT
                 (UTC) (F)     (DEG/KT/KT) (MB)    (FT)
BURNS HARBOR     0000   70      30/ 11/ 14 1015.6R
MICHIGAN CITY    0000   70     360/ 14/ 15   N/A
5NW MICH CITY    0100   72 73   30/ 14/ 17   N/A     3

$$

INZ004-005-014>016-021>024-310200-
NORTH CENTRAL INDIANA

CITY           SKY/WX    TMP DP  RH WIND       PRES   REMARKS
GOSHEN         PTCLDY    74  66  76 NE8       29.96R
LOGANSPORT +   CLOUDY    72  66  83 NE3       29.95S
PERU/GRISSOM   PTCLDY    73  69  87 NW1       29.94R
ROCHESTER +    PTCLDY    75  72  88 CALM      29.95S
SOUTH BEND     MOCLDY    73  67  81 NE9       29.97R
WARSAW +       CLEAR     73  68  83 NE3       29.95R

$$

INZ006>009-017-018-025>027-310200-
NORTHEAST INDIANA

CITY           SKY/WX    TMP DP  RH WIND       PRES   REMARKS
ANGOLA *+      PTCLDY    73  66  78 CALM      29.97R
AUBURN +       MOCLDY    75  66  73 N5        29.96S
FORT WAYNE     PTCLDY    75  69  81 W5        29.95R
HUNTINGTON +   CLOUDY    73  71  93 CALM      29.95R

$$

INZ028-029-035-036-043>045-051>053-310200-
WEST CENTRAL INDIANA

CITY           SKY/WX    TMP DP  RH WIND       PRES   REMARKS
CRAWFORDSVL +  CLEAR     72  69  92 W3        29.95S
GREENCASTLE +  CLEAR     72  72 100 CALM      29.96S
LAFAYETTE      CLEAR     74  67  78 NW5       29.93S
TERRE HAUTE    PTCLDY    75  66  73 W5        29.95S

$$

INZ030>032-037>040-046>048-054>057-064-065-310200-
CENTRAL INDIANA

CITY           SKY/WX    TMP DP  RH WIND       PRES   REMARKS
COLUMBUS       PTCLDY    77  70  78 W6        29.95S
INDIANAPOLIS   PTCLDY    77  65  66 W7        29.95S
-EAGLE CREEK   CLEAR     79  65  62 SW3       29.94S
KOKOMO *+      CLEAR     75  66  73 N5        29.95R
MARION +       CLEAR     74  69  83 N5        29.96R
MT COMFORT *+  CLEAR     73  64  73 CALM      29.95S
SHELBYVILLE    CLEAR     77  66  68 SW6       29.94S
ZIONSVILLE +   CLEAR     74  66  77 W3        29.96S

$$

INZ033-034-041-042-049-050-058-059-310200-
EAST CENTRAL INDIANA

CITY           SKY/WX    TMP DP  RH WIND       PRES   REMARKS
MUNCIE         CLEAR     76  67  73 NW3       29.95R

$$

INZ060-061-067>069-081>083-085>088-310200-
SOUTHWEST INDIANA

CITY           SKY/WX    TMP DP  RH WIND       PRES   REMARKS
EVANSVILLE     CLEAR     79  69  71 CALM      29.96R
HUNTINGBURG *+ PTCLDY    79  70  73 CALM      29.96R
WASHINGTON +   CLEAR     74  74  99 MISG      29.95S

$$

INZ062-063-066-070>080-084-089>092-310200-
SOUTH CENTRAL AND SOUTHEAST INDIANA

CITY           SKY/WX    TMP DP  RH WIND       PRES   REMARKS
BLOOMINGTON    CLEAR     73  68  84 SW3       29.96S
MADISON *+     PTCLDY    75  72  88 CALM      29.98F
NORTH VERNON + PTCLDY    79  79 100 CALM      29.96
SEYMOUR +      CLEAR     77  70  78 CALM      29.94F

$$





USA.gov is the U.S. government's official web portal to all federal, state and local government web resources and services.